Location: Edelsbach
(47.0167°N, 15.6000°E)
Time: 23:19:41
(UTC+00:00)

ATLAS 5 CENTAUR R/B - Pass Details

Date: 08 August 2020
Orbit: 533 x 1125 km, 63.4° (Epoch: 19 September)

Event Time Altitude Azimuth Distance (km) Brightness Sun altitude
Rises 20:46:00 0° 307° (NW) 3,399 6.7 -20.0°
Reaches altitude 10° 20:49:05 10° 289° (WNW) 2,570 5.5 -20.3°
Maximum altitude 20:53:04 19° 248° (WSW) 2,141 4.4 -20.7°
Enters shadow 20:57:16 10° 208° (SSW) 2,781 4.6 -21.1°
